User: anonymous   Login
Location: South Range
(44.4886°N, 65.7879°W)
Time: 05:56:58
(UTC-03:00)
Language:

Iridium 56 - Orbit

View from above orbital plane
View from above orbital plane
View from above satellite
View from above satellite

Ground track
Ground track

The orbit data is extracted from the following two-line orbital elements,

1 25170U 98010B   18111.85158841 +.00000179 +00000-0 +56739-4 0  9996
2 25170 086.4025 221.4607 0002331 095.2900 264.8562 14.34215102055925
Epoch (UTC): 21 April 2018 20:26:17
Eccentricity: 0.0002331
inclination: 86.4025°
perigee height: 776 km
apogee height: 779 km
right ascension of ascending node: 221.4607°
argument of perigee: 95.2900°
revolutions per day: 14.34215102
mean anomaly at epoch: 264.8562°
orbit number at epoch: 5592

The dashed part of the orbit path shows where the satellite is in the earth's shadow,  

DLR